Location: Long Ditton
(51.3833°N, 0.3167°W)
Time: 01:18:46
(UTC+00:00)

Daily predictions for brighter satellites

Satellite Brightness Start Highest point End
(mag) Time Altitude Azimuth Time Altitude Azimuth Time Altitude Azimuth
Meteor 1-24 Rocket 3.8 00:02:18 21° SSW 00:06:16 78° WNW 00:11:56 10° N
USA 234 4.0 00:00:20 10° ENE 00:06:43 57° N 00:13:05 10° W
Cosmos 2227 Rocket 2.8 00:05:20 23° SSE 00:08:29 43° ESE 00:13:50 10° NE
Cosmos 773 Rocket 4.5 00:03:37 10° NW 00:08:32 46° WSW 00:11:17 24° SSW
Cosmos 304 Rocket 3.7 00:06:23 22° SSW 00:09:27 83° WNW 00:14:15 10° NNE
Cosmos 1892 2.6 00:09:05 32° SSE 00:10:29 63° E 00:13:58 10° NNE
Cosmos 332 Rocket 4.2 00:09:47 25° S 00:12:23 52° ESE 00:17:09 10° NNE
Cosmos 2181 Rocket 4.1 00:06:43 10° NNW 00:12:53 70° W 00:16:56 22° S
Cosmos 1980 4.0 00:07:54 10° NW 00:13:24 52° WSW 00:16:41 23° S
CENTAUR R/B 3.3 00:12:18 21° SSE 00:15:22 35° ESE 00:21:33 10° NE
GEOS 3 Rocket 3.9 00:14:11 10° NE 00:19:11 48° SE 00:22:03 24° S
H-2A R/B 1.9 00:17:26 10° NNE 00:21:46 89° ESE 00:24:02 27° SSW
Cosmos 1538 Rocket 4.2 00:17:41 10° NNW 00:22:53 70° ENE 00:27:12 15° SE
Cosmos 1503 Rocket 4.1 00:19:44 20° SSW 00:23:31 75° WNW 00:28:51 10° NNE
Cosmos 1777 Rocket 4.0 00:21:13 22° SSW 00:24:45 85° WNW 00:30:05 10° NNE
SL-4 R/B 2.7 00:21:20 10° W 00:25:04 34° SSW 00:26:25 27° S
Cosmos 2151 Rocket 4.0 00:22:38 10° NNW 00:26:55 51° W 00:29:10 25° SSW
Cosmos 1174 4.3 00:23:29 10° NW 00:28:24 51° WSW 00:30:27 27° S
Cosmos 2297 Rocket 2.2 00:24:22 19° SSW 00:28:33 82° WNW 00:34:14 10° NNE
NOSS 8 (A) 4.2 00:25:39 10° NW 00:28:35 64° SW 00:30:08 28° SSE
Cosmos 2074 Rocket 4.0 00:24:31 22° S 00:28:42 84° E 00:34:57 10° N
Cosmos 2219 4.1 00:27:36 20° SSE 00:30:50 37° ESE 00:35:57 10° NE
Cosmos 2084 Rocket 3.5 00:29:51 26° SSW 00:32:02 60° SE 00:36:07 10° NE
ALOS 2 4.4 00:30:59 15° SW 00:33:07 20° W 00:36:25 10° NW
Okean 2 Rocket 3.6 00:29:24 10° NNW 00:33:42 48° W 00:36:03 24° SSW
Cosmos 1455 Rocket 3.6 00:30:02 10° N 00:34:24 54° ENE 00:37:36 17° SSE
ATLAS CENTAUR R/B 4.2 00:36:56 10° NW 00:38:53 14° NNW 00:40:54 10° NNE
Aureole 1 Rocket 4.1 00:38:34 20° SE 00:40:19 29° E 00:44:05 10° NE
Cosmos 1825 2.2 00:42:47 28° SW 00:44:20 55° WNW 00:47:44 10° N
Cosmos 1674 Rocket 3.9 00:41:51 23° SW 00:44:25 54° WNW 00:48:43 10° N
Cosmos 1378 Rocket 4.2 00:43:13 20° SW 00:45:52 45° WNW 00:50:07 10° N
Cosmos 1025 Rocket 3.0 00:50:34 25° S 00:53:06 83° E 00:57:26 10° NNE
Cosmos 2221 Rocket 4.2 00:51:16 21° SW 00:54:01 49° WNW 00:58:21 10° N
BREEZE-M DEB (TANK) 2.7 00:50:52 10° W 00:57:08 42° SSW 00:58:59 18° SE
Resurs 1-4 Rocket 4.0 00:54:21 10° NE 00:58:19 21° E 01:02:16 10° SE
NOSS 3-2 (A) 3.8 00:56:57 21° S 01:00:07 42° ESE 01:05:53 10° NE
Cosmos 1606 3.8 00:57:41 10° N 01:01:03 37° ENE 01:04:04 12° SE
Nadezhda 3 Rocket 4.1 00:55:32 10° NNW 01:01:45 64° W 01:06:12 19° S
Cosmos 2263 Rocket 2.8 00:58:49 19° S 01:02:28 45° ESE 01:07:44 10° NE
CZ-4C R/B 2.7 00:58:13 10° WSW 01:02:57 56° NW 01:08:59 10° NE
Cosmos 1898 Rocket 4.2 01:01:19 19° S 01:04:45 44° ESE 01:09:39 10° NE
COSMOS 2455 3.8 00:59:32 10° WSW 01:05:19 46° NW 01:11:09 10° NNE
Orbus 7S? 2.9 01:03:10 10° WNW 01:05:50 71° NNE 01:09:15 10° ESE
MOZ.5/SAFIR/RUBIN 5/SL-8 4.1 01:05:48 12° SSE 01:10:00 66° ENE 01:14:37 10° N
BlueWalker 3 2.1 01:09:12 10° W 01:12:56 71° N 01:16:42 10° ENE
Cosmos 2184 Rocket 4.5 01:08:24 17° SW 01:13:10 53° WNW 01:19:26 10° N
Helios 1A Rocket 2.7 01:12:04 21° S 01:14:29 76° WSW 01:18:18 10° NNW
Nimbus 7 Rocket 4.5 01:09:46 10° NNE 01:15:52 84° WNW 01:20:30 18° SSW
Cosmos 1461 4.3 01:14:31 17° SSE 01:16:29 24° ESE 01:19:40 10° ENE
BREEZE-M DEB (TANK) 2.8 01:21:56 10° W 01:25:57 11° SE 01:26:02 10° SE
Cosmos 1680 Rocket 3.5 01:28:03 10° NNW 01:33:18 88° ENE 01:38:31 10° SSE
SL-19 R/B 3.7 01:30:26 10° NNE 01:33:32 65° WNW 01:35:06 24° SSW
Cosmos 1818 3.5 01:28:47 10° NW 01:34:16 74° SW 01:39:42 10° SSE
In-Cosmos 22 Rocket 4.3 01:29:58 17° SSW 01:34:28 87° WNW 01:40:21 10° NNE
Cosmos 2112 Rocket 4.1 01:30:13 10° NNW 01:35:26 80° ENE 01:40:38 10° SSE
SL-16 R/B 2.8 01:31:41 10° NW 01:36:59 40° WSW 01:41:09 16° S
SL-16 R/B 3.7 01:34:05 10° SE 01:39:55 43° ENE 01:45:45 10° N
Cosmos 1603 4.3 01:36:10 10° NNW 01:41:53 60° NE 01:47:33 10° SE
Cosmos 2237 Rocket 4.2 01:41:13 10° WNW 01:43:22 12° W 01:45:31 10° WSW
Cosmos 1869 3.1 01:40:11 10° NNW 01:43:52 70° W 01:46:41 16° S
Cosmos 1544 Rocket 3.5 01:41:34 10° NNW 01:46:02 79° W 01:49:58 13° S
Cosmos 292 Rocket 3.9 01:43:03 17° SW 01:46:44 70° WNW 01:51:34 10° NNE
SL-8 Rocket 4.0 01:43:18 15° S 01:48:31 85° W 01:54:46 10° N
USA 234 3.9 01:42:53 10° E 01:49:19 62° NNE 01:55:46 10° WNW
Cosmos 2082 3.7 01:45:35 16° SSW 01:50:09 89° SE 01:55:49 10° NNE
IDEFIX/ARIANE 42P 2.8 01:45:17 10° NNE 01:50:32 67° ESE 01:55:13 13° S
Cosmos 2228 3.0 01:47:14 10° N 01:51:36 89° ENE 01:55:50 10° S
Cosmos 1943 3.2 01:46:31 10° NNW 01:52:10 84° WSW 01:57:47 10° SSE
Cosmos 2227 Rocket 3.1 01:47:13 10° WSW 01:52:36 42° NW 01:57:59 10° NNE
CZ-2C R/B 3.9 01:50:13 10° NNE 01:55:32 47° E 02:00:32 10° S
H-2A R/B 4.4 01:54:30 10° NNW 01:56:49 14° NW 01:59:04 10° W
Cosmos 1437 Rocket 4.0 01:53:44 10° SSE 01:57:13 34° E 02:00:41 10° NNE
GEOS 3 Rocket 4.4 01:52:15 10° NE 01:57:14 48° NW 02:02:08 10° WSW
CZ-2C R/B 2.6 01:52:08 10° SSE 01:57:25 89° WSW 02:02:52 10° NNW
CZ-2D R/B 2.6 01:53:18 10° NNE 01:58:36 57° E 02:03:47 10° S
Cosmos 1975 Rocket 3.8 01:58:43 15° SW 02:02:01 41° WNW 02:06:12 10° N
Meteor 1-11 4.4 01:57:52 14° SSW 02:02:48 67° WNW 02:08:37 10° N
Cosmos 1727 Rocket 4.2 01:57:07 10° N 02:03:29 82° E 02:09:51 10° SSE
COBE Rocket 4.1 01:59:57 10° N 02:05:04 70° WNW 02:09:38 13° SSW
CENTAUR R/B 2.9 01:59:34 10° WSW 02:05:32 66° NW 02:13:01 10° NE
H-2A R/B 3.4 02:04:28 10° NNE 02:08:28 84° ESE 02:12:02 13° SSW
USA 238 DEB 4.4 02:06:34 10° S 02:12:12 39° ESE 02:18:21 10° NE
USA 238 4.5 02:06:36 10° S 02:12:16 39° ESE 02:18:24 10° NE
Cosmos 2297 Rocket 4.1 02:09:05 10° W 02:13:28 23° NW 02:17:53 10° NNE
Cosmos 2219 3.9 02:09:29 10° SW 02:14:53 47° NW 02:20:20 10° NNE
NPP 3.7 02:09:40 10° NNE 02:15:06 84° WNW 02:20:16 11° SSW
Cosmos 2341 Rocket 4.4 02:13:09 12° SSW 02:18:40 51° WNW 02:24:45 10° N
Cosmos 1606 Rocket 3.9 02:17:07 10° N 02:21:35 70° ENE 02:25:59 10° SSE
ASTEX 1 3.8 02:16:51 10° SSE 02:21:39 63° E 02:26:28 10° N
Aureole 1 Rocket 4.2 02:20:01 10° WSW 02:23:25 31° NW 02:27:34 10° NNE
Cosmos 921 Rocket 3.0 02:19:31 10° NNW 02:23:49 83° ENE 02:28:00 10° SSE
Cosmos 1867 4.5 02:18:45 10° S 02:23:49 41° ESE 02:28:56 10° NE
Cosmos 2227 4.4 02:18:50 11° SSW 02:24:21 70° ESE 02:30:06 10° NNE
ADEOS II 2.4 02:20:33 10° NNE 02:25:47 65° ESE 02:30:59 10° S
Meteor 2-13 Rocket 4.5 02:20:44 10° NNW 02:26:48 70° W 02:32:51 10° S
Cosmos 494 Rocket 4.0 02:21:57 10° NNW 02:27:12 84° WSW 02:32:27 10° SSE
Cosmos 372 Rocket 4.5 02:22:28 11° SW 02:27:22 52° WNW 02:32:30 10° NNE
Cosmos 1536 Rocket 3.7 02:27:08 10° SSW 02:31:29 70° WNW 02:35:56 10° N
Cosmos 1606 4.3 02:32:56 10° NW 02:35:29 18° W 02:38:01 10° SW
Cosmos 1726 Rocket 3.8 02:32:43 10° N 02:37:12 76° E 02:41:36 10° SSE
Resurs 1-4 Rocket 2.2 02:33:22 10° NNE 02:38:37 69° WNW 02:43:52 10° SSW
Cosmos 724 4.4 02:36:25 10° NW 02:42:15 86° NE 02:48:06 10° SE
Cosmos 1937 Rocket 4.2 02:38:26 10° SW 02:43:31 46° WNW 02:48:34 10° NNE
Iridium 4 Rocket 4.3 02:41:44 10° N 02:45:56 45° E 02:50:27 10° SSE
Cosmos 2263 Rocket 3.1 02:41:13 10° WSW 02:46:28 40° NW 02:51:43 10° NNE
NOSS 3-2 (A) 4.0 02:45:25 10° WSW 02:50:47 53° NNW 02:57:18 10° NE
BlueWalker 3 2.1 02:47:34 10° WNW 02:51:19 73° NNE 02:55:04 10° E
Cosmos 1812 2.9 02:48:43 10° N 02:52:18 68° ENE 02:55:51 10° SSE
CZ-4C R/B 4.2 02:47:55 10° WNW 02:52:39 29° N 02:58:28 10° NE
Cosmos 1821 Rocket 4.2 02:46:40 10° SSW 02:52:39 59° WNW 02:58:45 10° N
Cosmos 1461 3.3 02:50:35 10° WSW 02:54:25 50° NW 02:58:13 10° NE
USA 267 3.9 02:48:33 10° ENE 02:54:47 45° SE 03:00:59 10° SSW
Cosmos 2058 4.1 02:51:33 10° SSE 02:55:21 41° E 02:59:12 10° NNE
NOSS 3-2 (C) 3.4 02:51:01 10° SW 02:56:25 79° NW 03:02:59 10° NE
BREEZE M DEB (TANK) 4.4 02:41:31 10° W 02:57:03 74° SSW 03:01:18 10° ESE
AQUA 3.8 02:53:09 10° NNE 02:57:54 84° WNW 03:02:37 10° SSW
Cosmos 1607 4.0 02:52:57 10° NW 02:59:19 65° SW 03:05:32 10° SSE
SAR-Lupe-4 4.0 02:57:01 10° NNE 03:00:33 60° ESE 03:04:03 10° S
